Back to Top

Language: 

My Weather Underground Personal Weather Station Historical Data with Graphs...

Delerius Weather Station Historical Data
Daily Summary for March 18, 2017 Units:  English    Metric   Both
« Previous Day
Next Day »
Daily Weekly Monthly Yearly Custom
  High: Low: Average:
Temperature: 55.6 °F 52.0 °F 53.2 °F
Dew Point: 51.7 °F 48.4 °F 49.8 °F
Humidity: 93 % 82 % 88 %
Wind Speed: 21.0 mph 2.0 mph 11.1 mph
Wind Gust: 34.0 mph - -
Wind:- - WNW
Pressure: 29.76 in 29.57 in -
Precipitation: 0.02 in    
Historical Graphs
 
 
Tabular Data for March 18, 2017
Time Temperature Dew Point Pressure Wind Wind Speed Wind Gust Humidity Rainfall Rate (Hourly) solar Conditions
00:04 52.3 °F 48.6 °F 29.57 in WNW 16.0 mph 31.0 mph 87 % 0.00 in 0 W/m2
00:09 52.3 °F 48.6 °F 29.57 in WNW 15.0 mph 29.0 mph 87 % 0.00 in 0 W/m2
00:14 52.3 °F 48.9 °F 29.58 in WNW 16.0 mph 29.0 mph 88 % 0.00 in 0 W/m2
00:20 52.3 °F 48.9 °F 29.58 in WNW 16.0 mph 29.0 mph 88 % 0.00 in 0 W/m2
00:25 52.2 °F 48.7 °F 29.58 in WNW 17.0 mph 34.0 mph 88 % 0.00 in 0 W/m2
00:30 52.2 °F 48.7 °F 29.57 in WNW 19.0 mph 34.0 mph 88 % 0.00 in 0 W/m2
00:35 52.2 °F 49.0 °F 29.58 in WNW 19.0 mph 31.0 mph 89 % 0.00 in 0 W/m2
00:40 52.0 °F 48.8 °F 29.58 in WNW 20.0 mph 31.0 mph 89 % 0.00 in 0 W/m2
00:45 52.0 °F 48.8 °F 29.58 in WNW 21.0 mph 34.0 mph 89 % 0.00 in 0 W/m2
00:50 52.0 °F 48.8 °F 29.57 in WNW 21.0 mph 34.0 mph 89 % 0.00 in 0 W/m2
00:55 52.0 °F 48.8 °F 29.57 in West 20.0 mph 29.0 mph 89 % 0.00 in 0 W/m2
01:00 52.0 °F 48.8 °F 29.57 in West 18.0 mph 28.0 mph 89 % 0.00 in 0 W/m2
01:05 52.0 °F 49.1 °F 29.57 in West 16.0 mph 25.0 mph 90 % 0.00 in 0 W/m2
01:10 52.0 °F 48.8 °F 29.57 in WNW 16.0 mph 26.0 mph 89 % 0.00 in 0 W/m2
01:15 52.0 °F 48.8 °F 29.58 in West 16.0 mph 26.0 mph 89 % 0.00 in 0 W/m2
01:20 52.0 °F 48.8 °F 29.58 in West 16.0 mph 30.0 mph 89 % 0.00 in 0 W/m2
01:25 52.2 °F 49.0 °F 29.58 in WNW 16.0 mph 30.0 mph 89 % 0.00 in 0 W/m2
01:30 52.2 °F 48.7 °F 29.58 in WNW 17.0 mph 30.0 mph 88 % 0.00 in 0 W/m2
01:35 52.3 °F 48.9 °F 29.58 in WNW 18.0 mph 30.0 mph 88 % 0.00 in 0 W/m2
01:40 52.3 °F 48.9 °F 29.58 in WNW 17.0 mph 27.0 mph 88 % 0.00 in 0 W/m2
01:45 52.3 °F 48.9 °F 29.58 in West 17.0 mph 32.0 mph 88 % 0.00 in 0 W/m2
01:50 52.3 °F 48.6 °F 29.58 in West 18.0 mph 32.0 mph 87 % 0.00 in 0 W/m2
01:55 52.5 °F 48.8 °F 29.58 in WNW 19.0 mph 29.0 mph 87 % 0.00 in 0 W/m2
02:00 52.5 °F 48.8 °F 29.58 in WNW 18.0 mph 29.0 mph 87 % 0.00 in 0 W/m2
02:05 52.5 °F 48.8 °F 29.59 in WNW 17.0 mph 31.0 mph 87 % 0.00 in 0 W/m2
02:10 52.5 °F 48.8 °F 29.59 in WNW 19.0 mph 31.0 mph 87 % 0.00 in 0 W/m2
02:15 52.5 °F 48.8 °F 29.59 in WNW 19.0 mph 31.0 mph 87 % 0.00 in 0 W/m2
02:20 52.5 °F 48.8 °F 29.60 in WNW 17.0 mph 31.0 mph 87 % 0.00 in 0 W/m2
02:25 52.5 °F 48.8 °F 29.59 in WNW 17.0 mph 28.0 mph 87 % 0.00 in 0 W/m2
02:30 52.5 °F 48.8 °F 29.59 in WNW 17.0 mph 28.0 mph 87 % 0.00 in 0 W/m2
02:35 52.3 °F 48.6 °F 29.60 in WNW 16.0 mph 25.0 mph 87 % 0.00 in 0 W/m2
02:40 52.3 °F 48.6 °F 29.60 in WNW 16.0 mph 26.0 mph 87 % 0.00 in 0 W/m2
02:45 52.3 °F 48.6 °F 29.60 in WNW 15.0 mph 26.0 mph 87 % 0.00 in 0 W/m2
02:50 52.3 °F 48.6 °F 29.60 in WNW 17.0 mph 28.0 mph 87 % 0.00 in 0 W/m2
02:55 52.3 °F 48.6 °F 29.60 in WNW 17.0 mph 28.0 mph 87 % 0.00 in 0 W/m2
03:00 52.3 °F 48.6 °F 29.60 in WNW 15.0 mph 27.0 mph 87 % 0.00 in 0 W/m2
03:05 52.3 °F 48.6 °F 29.60 in WNW 15.0 mph 27.0 mph 87 % 0.00 in 0 W/m2
03:10 52.2 °F 48.7 °F 29.60 in WNW 15.0 mph 29.0 mph 88 % 0.00 in 0 W/m2
03:15 52.2 °F 48.7 °F 29.59 in WNW 15.0 mph 29.0 mph 88 % 0.00 in 0 W/m2
03:20 52.2 °F 48.7 °F 29.60 in WNW 15.0 mph 26.0 mph 88 % 0.00 in 0 W/m2
03:25 52.2 °F 48.7 °F 29.60 in WNW 15.0 mph 26.0 mph 88 % 0.00 in 0 W/m2
03:30 52.2 °F 48.7 °F 29.60 in WNW 16.0 mph 26.0 mph 88 % 0.00 in 0 W/m2
03:35 52.2 °F 48.7 °F 29.61 in WNW 15.0 mph 28.0 mph 88 % 0.00 in 0 W/m2
03:40 52.3 °F 48.9 °F 29.61 in WNW 14.0 mph 28.0 mph 88 % 0.00 in 0 W/m2
03:45 52.3 °F 48.9 °F 29.62 in WNW 13.0 mph 25.0 mph 88 % 0.00 in 0 W/m2
03:50 52.3 °F 48.9 °F 29.62 in WNW 13.0 mph 25.0 mph 88 % 0.00 in 0 W/m2
03:55 52.3 °F 48.9 °F 29.62 in WNW 12.0 mph 22.0 mph 88 % 0.00 in 0 W/m2
04:00 52.2 °F 48.7 °F 29.62 in WNW 12.0 mph 29.0 mph 88 % 0.00 in 0 W/m2
04:05 52.2 °F 48.7 °F 29.63 in WNW 13.0 mph 29.0 mph 88 % 0.00 in 0 W/m2
04:10 52.2 °F 49.0 °F 29.63 in WNW 12.0 mph 22.0 mph 89 % 0.00 in 0 W/m2
04:15 52.2 °F 49.0 °F 29.63 in WNW 13.0 mph 23.0 mph 89 % 0.00 in 0 W/m2
04:20 52.2 °F 49.0 °F 29.63 in WNW 13.0 mph 23.0 mph 89 % 0.00 in 0 W/m2
04:25 52.2 °F 49.0 °F 29.63 in WNW 12.0 mph 22.0 mph 89 % 0.00 in 0 W/m2
04:30 52.2 °F 49.0 °F 29.63 in WNW 11.0 mph 20.0 mph 89 % 0.00 in 0 W/m2
04:35 52.2 °F 48.7 °F 29.64 in WNW 11.0 mph 23.0 mph 88 % 0.00 in 0 W/m2
04:40 52.2 °F 48.7 °F 29.64 in WNW 12.0 mph 23.0 mph 88 % 0.00 in 0 W/m2
04:45 52.2 °F 48.7 °F 29.64 in WNW 12.0 mph 22.0 mph 88 % 0.00 in 0 W/m2
04:50 52.2 °F 48.7 °F 29.64 in WNW 13.0 mph 24.0 mph 88 % 0.00 in 0 W/m2
04:52 52.2 °F 48.7 °F 29.64 in WNW 13.0 mph 24.0 mph 88 % 0.00 in 0 W/m2
04:57 52.2 °F 48.7 °F 29.64 in WNW 14.0 mph 28.0 mph 88 % 0.00 in 0 W/m2
05:02 52.2 °F 48.7 °F 29.63 in WNW 13.0 mph 28.0 mph 88 % 0.00 in 0 W/m2
05:07 52.2 °F 48.4 °F 29.63 in WNW 13.0 mph 25.0 mph 87 % 0.00 in 0 W/m2
05:12 52.3 °F 48.6 °F 29.63 in WNW 15.0 mph 27.0 mph 87 % 0.00 in 0 W/m2
05:17 52.3 °F 48.6 °F 29.64 in WNW 14.0 mph 27.0 mph 87 % 0.00 in 0 W/m2
05:22 52.3 °F 48.6 °F 29.64 in WNW 13.0 mph 27.0 mph 87 % 0.00 in 0 W/m2
05:27 52.2 °F 48.4 °F 29.64 in WNW 15.0 mph 27.0 mph 87 % 0.00 in 0 W/m2
05:32 52.2 °F 48.4 °F 29.64 in WNW 14.0 mph 23.0 mph 87 % 0.00 in 0 W/m2
05:37 52.2 °F 48.4 °F 29.65 in WNW 13.0 mph 25.0 mph 87 % 0.00 in 0 W/m2
05:42 52.2 °F 48.4 °F 29.65 in WNW 13.0 mph 25.0 mph 87 % 0.00 in 0 W/m2
05:47 52.2 °F 48.4 °F 29.65 in WNW 12.0 mph 25.0 mph 87 % 0.00 in 0 W/m2
05:52 52.2 °F 48.4 °F 29.65 in WNW 13.0 mph 23.0 mph 87 % 0.00 in 0 W/m2
05:57 52.2 °F 48.4 °F 29.65 in WNW 14.0 mph 23.0 mph 87 % 0.00 in 0 W/m2
06:02 52.2 °F 48.4 °F 29.66 in WNW 13.0 mph 24.0 mph 87 % 0.00 in 0 W/m2
06:04 52.2 °F 48.4 °F 29.66 in WNW 12.0 mph 24.0 mph 87 % 0.00 in 0 W/m2
06:09 52.2 °F 48.4 °F 29.66 in WNW 11.0 mph 24.0 mph 87 % 0.00 in 0 W/m2
06:14 52.0 °F 48.5 °F 29.66 in WNW 9.0 mph 19.0 mph 88 % 0.00 in 0 W/m2
06:19 52.0 °F 48.5 °F 29.66 in WNW 11.0 mph 23.0 mph 88 % 0.00 in 0 W/m2
06:24 52.0 °F 48.5 °F 29.67 in WNW 12.0 mph 23.0 mph 88 % 0.00 in 0 W/m2
06:29 52.0 °F 48.5 °F 29.67 in WNW 12.0 mph 23.0 mph 88 % 0.00 in 5 W/m2
06:34 52.0 °F 48.5 °F 29.68 in WNW 12.0 mph 23.0 mph 88 % 0.00 in 7 W/m2
06:39 52.0 °F 48.5 °F 29.68 in WNW 13.0 mph 24.0 mph 88 % 0.00 in 7 W/m2
06:40 52.0 °F 48.5 °F 29.68 in WNW 13.0 mph 24.0 mph 88 % 0.00 in 7 W/m2
06:45 52.2 °F 48.7 °F 29.68 in WNW 14.0 mph 24.0 mph 88 % 0.00 in 7 W/m2
06:50 52.2 °F 48.7 °F 29.68 in WNW 14.0 mph 28.0 mph 88 % 0.00 in 16 W/m2
06:55 52.0 °F 48.5 °F 29.68 in WNW 14.0 mph 28.0 mph 88 % 0.00 in 14 W/m2
07:00 52.0 °F 48.5 °F 29.68 in WNW 13.0 mph 25.0 mph 88 % 0.00 in 14 W/m2
07:05 52.0 °F 48.8 °F 29.68 in WNW 12.0 mph 21.0 mph 89 % 0.00 in 16 W/m2
07:10 52.0 °F 48.8 °F 29.68 in WNW 12.0 mph 24.0 mph 89 % 0.00 in 16 W/m2
07:15 52.0 °F 48.8 °F 29.68 in WNW 12.0 mph 24.0 mph 89 % 0.00 in 25 W/m2
07:20 52.0 °F 48.8 °F 29.69 in WNW 11.0 mph 22.0 mph 89 % 0.00 in 18 W/m2
07:25 52.0 °F 48.8 °F 29.68 in WNW 12.0 mph 22.0 mph 89 % 0.00 in 26 W/m2
07:30 52.0 °F 48.8 °F 29.69 in WNW 12.0 mph 22.0 mph 89 % 0.00 in 39 W/m2
07:35 52.0 °F 48.8 °F 29.69 in WNW 12.0 mph 21.0 mph 89 % 0.00 in 60 W/m2
07:40 52.0 °F 48.8 °F 29.69 in WNW 13.0 mph 22.0 mph 89 % 0.00 in 58 W/m2
07:45 52.0 °F 48.8 °F 29.69 in WNW 13.0 mph 22.0 mph 89 % 0.00 in 93 W/m2
07:50 52.2 °F 49.0 °F 29.69 in WNW 13.0 mph 25.0 mph 89 % 0.00 in 65 W/m2
07:55 52.2 °F 49.0 °F 29.68 in WNW 13.0 mph 25.0 mph 89 % 0.00 in 121 W/m2
08:00 52.3 °F 49.2 °F 29.68 in WNW 12.0 mph 22.0 mph 89 % 0.00 in 137 W/m2
08:05 52.3 °F 49.2 °F 29.68 in WNW 12.0 mph 22.0 mph 89 % 0.00 in 148 W/m2
08:10 52.7 °F 49.5 °F 29.69 in WNW 13.0 mph 22.0 mph 89 % 0.00 in 188 W/m2
08:15 53.1 °F 49.6 °F 29.69 in WNW 13.0 mph 22.0 mph 88 % 0.00 in 223 W/m2
08:20 53.2 °F 49.8 °F 29.69 in WNW 11.0 mph 22.0 mph 88 % 0.00 in 176 W/m2
08:25 53.4 °F 50.0 °F 29.69 in WNW 11.0 mph 19.0 mph 88 % 0.00 in 204 W/m2
08:30 53.6 °F 50.1 °F 29.69 in WNW 11.0 mph 19.0 mph 88 % 0.00 in 239 W/m2
08:35 53.8 °F 50.0 °F 29.68 in WNW 12.0 mph 21.0 mph 87 % 0.00 in 276 W/m2
08:40 54.0 °F 50.2 °F 29.68 in WNW 11.0 mph 21.0 mph 87 % 0.00 in 160 W/m2
08:45 54.0 °F 50.2 °F 29.69 in WNW 12.0 mph 22.0 mph 87 % 0.00 in 232 W/m2
08:50 54.0 °F 50.2 °F 29.69 in WNW 12.0 mph 22.0 mph 87 % 0.00 in 116 W/m2
08:55 54.0 °F 50.2 °F 29.70 in WNW 11.0 mph 20.0 mph 87 % 0.00 in 162 W/m2
09:00 53.8 °F 50.0 °F 29.70 in WNW 12.0 mph 21.0 mph 87 % 0.00 in 185 W/m2
09:05 53.8 °F 50.0 °F 29.70 in WNW 11.0 mph 21.0 mph 87 % 0.00 in 181 W/m2
09:10 54.0 °F 50.2 °F 29.70 in WNW 9.0 mph 19.0 mph 87 % 0.00 in 132 W/m2
09:15 54.0 °F 50.2 °F 29.70 in WNW 8.0 mph 18.0 mph 87 % 0.00 in 128 W/m2
09:20 54.0 °F 50.2 °F 29.70 in WNW 8.0 mph 18.0 mph 87 % 0.00 in 114 W/m2
09:25 53.8 °F 49.7 °F 29.70 in WNW 10.0 mph 20.0 mph 86 % 0.00 in 148 W/m2
09:30 53.8 °F 49.7 °F 29.71 in WNW 11.0 mph 20.0 mph 86 % 0.00 in 146 W/m2
09:35 53.8 °F 49.7 °F 29.71 in WNW 10.0 mph 16.0 mph 86 % 0.00 in 65 W/m2
09:40 53.8 °F 49.7 °F 29.71 in WNW 10.0 mph 21.0 mph 86 % 0.00 in 77 W/m2
09:45 53.6 °F 49.5 °F 29.71 in WNW 12.0 mph 22.0 mph 86 % 0.00 in 67 W/m2
09:50 53.4 °F 49.6 °F 29.71 in WNW 10.0 mph 22.0 mph 87 % 0.00 in 62 W/m2
09:55 53.4 °F 49.6 °F 29.71 in WNW 6.0 mph 11.0 mph 87 % 0.00 in 95 W/m2
10:00 53.2 °F 49.8 °F 29.71 in WNW 5.0 mph 13.0 mph 88 % 0.00 in 98 W/m2
10:05 53.4 °F 49.6 °F 29.71 in WNW 7.0 mph 18.0 mph 87 % 0.00 in 88 W/m2
10:10 53.4 °F 49.6 °F 29.72 in WNW 9.0 mph 18.0 mph 87 % 0.00 in 91 W/m2
10:15 53.8 °F 49.7 °F 29.72 in WNW 10.0 mph 26.0 mph 86 % 0.00 in 65 W/m2
10:21 53.8 °F 49.4 °F 29.72 in WNW 12.0 mph 26.0 mph 85 % 0.00 in 70 W/m2
10:26 53.8 °F 49.4 °F 29.72 in WNW 12.0 mph 22.0 mph 85 % 0.00 in 65 W/m2
10:31 54.0 °F 49.2 °F 29.72 in WNW 9.0 mph 16.0 mph 84 % 0.00 in 70 W/m2
10:36 54.0 °F 49.2 °F 29.71 in WNW 7.0 mph 13.0 mph 84 % 0.00 in 62 W/m2
10:41 54.0 °F 49.2 °F 29.72 in WNW 9.0 mph 23.0 mph 84 % 0.00 in 79 W/m2
10:46 54.1 °F 49.4 °F 29.73 in West 12.0 mph 23.0 mph 84 % 0.00 in 188 W/m2
10:51 54.1 °F 49.1 °F 29.72 in West 11.0 mph 21.0 mph 83 % 0.00 in 93 W/m2
10:56 54.3 °F 49.3 °F 29.73 in WNW 12.0 mph 21.0 mph 83 % 0.00 in 97 W/m2
11:01 54.3 °F 48.9 °F 29.74 in WNW 12.0 mph 21.0 mph 82 % 0.00 in 120 W/m2
11:06 54.5 °F 49.1 °F 29.74 in WNW 12.0 mph 24.0 mph 82 % 0.00 in 130 W/m2
11:11 54.7 °F 49.3 °F 29.74 in WNW 13.0 mph 24.0 mph 82 % 0.00 in 134 W/m2
11:16 54.7 °F 49.3 °F 29.75 in WNW 13.0 mph 24.0 mph 82 % 0.00 in 91 W/m2
11:21 54.7 °F 49.9 °F 29.74 in WNW 13.0 mph 24.0 mph 84 % 0.00 in 214 W/m2
11:26 54.5 °F 49.8 °F 29.74 in WNW 13.0 mph 22.0 mph 84 % 0.00 in 183 W/m2
11:31 54.3 °F 49.9 °F 29.75 in WNW 13.0 mph 22.0 mph 85 % 0.00 in 128 W/m2
11:36 54.1 °F 50.4 °F 29.75 in West 12.0 mph 22.0 mph 87 % 0.00 in 169 W/m2
11:41 54.0 °F 50.5 °F 29.75 in West 10.0 mph 18.0 mph 88 % 0.00 in 200 W/m2
11:46 54.0 °F 50.8 °F 29.75 in West 10.0 mph 18.0 mph 89 % 0.00 in 156 W/m2
11:51 54.0 °F 50.8 °F 29.75 in WNW 10.0 mph 21.0 mph 89 % 0.00 in 137 W/m2
11:56 53.8 °F 50.6 °F 29.75 in WNW 11.0 mph 21.0 mph 89 % 0.00 in 190 W/m2
12:01 53.8 °F 50.9 °F 29.75 in WNW 10.0 mph 15.0 mph 90 % 0.00 in 227 W/m2
12:06 54.0 °F 51.1 °F 29.75 in WNW 9.0 mph 15.0 mph 90 % 0.00 in 297 W/m2
12:11 54.1 °F 51.3 °F 29.75 in WNW 9.0 mph 15.0 mph 90 % 0.00 in 130 W/m2
12:16 54.0 °F 50.8 °F 29.75 in WNW 10.0 mph 21.0 mph 89 % 0.00 in 67 W/m2
12:21 53.8 °F 50.6 °F 29.75 in WNW 11.0 mph 21.0 mph 89 % 0.00 in 90 W/m2
12:26 53.6 °F 50.7 °F 29.75 in WNW 11.0 mph 21.0 mph 90 % 0.01 in 132 W/m2
12:31 53.4 °F 50.6 °F 29.76 in WNW 9.0 mph 15.0 mph 90 % 0.01 in 72 W/m2
12:36 53.4 °F 50.9 °F 29.76 in WNW 8.0 mph 14.0 mph 91 % 0.02 in 100 W/m2
12:41 53.2 °F 50.7 °F 29.75 in WNW 9.0 mph 16.0 mph 91 % 0.02 in 207 W/m2
12:46 53.2 °F 51.0 °F 29.75 in WNW 8.0 mph 16.0 mph 92 % 0.02 in 174 W/m2
12:51 53.4 °F 51.2 °F 29.75 in WNW 7.0 mph 15.0 mph 92 % 0.02 in 190 W/m2
12:56 53.4 °F 51.2 °F 29.75 in WNW 9.0 mph 16.0 mph 92 % 0.02 in 315 W/m2
13:01 53.8 °F 51.5 °F 29.74 in WNW 9.0 mph 16.0 mph 92 % 0.02 in 234 W/m2
13:06 54.0 °F 51.7 °F 29.74 in WNW 10.0 mph 20.0 mph 92 % 0.02 in 250 W/m2
13:11 54.0 °F 51.4 °F 29.74 in WNW 10.0 mph 20.0 mph 91 % 0.02 in 234 W/m2
13:16 54.1 °F 51.6 °F 29.75 in WNW 11.0 mph 21.0 mph 91 % 0.02 in 186 W/m2
13:22 54.1 °F 51.3 °F 29.75 in WNW 13.0 mph 21.0 mph 90 % 0.01 in 207 W/m2
13:27 54.1 °F 51.3 °F 29.75 in WNW 12.0 mph 20.0 mph 90 % 0.01 in 162 W/m2
13:32 54.1 °F 51.0 °F 29.74 in WNW 11.0 mph 20.0 mph 89 % 0.01 in 134 W/m2
13:37 54.1 °F 51.0 °F 29.74 in West 11.0 mph 20.0 mph 89 % 0.00 in 244 W/m2
13:42 54.3 °F 50.8 °F 29.74 in West 11.0 mph 20.0 mph 88 % 0.00 in 241 W/m2
13:47 54.5 °F 51.0 °F 29.73 in West 11.0 mph 20.0 mph 88 % 0.00 in 169 W/m2
13:52 54.7 °F 50.9 °F 29.74 in WNW 12.0 mph 22.0 mph 87 % 0.00 in 114 W/m2
13:57 54.5 °F 50.7 °F 29.73 in WNW 11.0 mph 22.0 mph 87 % 0.00 in 250 W/m2
14:02 54.7 °F 50.9 °F 29.73 in West 10.0 mph 21.0 mph 87 % 0.00 in 446 W/m2
14:07 55.2 °F 51.4 °F 29.73 in WNW 11.0 mph 21.0 mph 87 % 0.00 in 374 W/m2
14:12 55.6 °F 51.5 °F 29.73 in WNW 11.0 mph 21.0 mph 86 % 0.00 in 241 W/m2
14:17 55.6 °F 51.1 °F 29.73 in West 12.0 mph 22.0 mph 85 % 0.00 in 294 W/m2
14:22 55.6 °F 51.1 °F 29.73 in West 12.0 mph 22.0 mph 85 % 0.00 in 176 W/m2
14:27 55.4 °F 50.6 °F 29.73 in WNW 12.0 mph 20.0 mph 84 % 0.00 in 118 W/m2
14:32 55.0 °F 50.3 °F 29.73 in West 13.0 mph 23.0 mph 84 % 0.00 in 207 W/m2
14:37 54.9 °F 50.4 °F 29.73 in West 12.0 mph 23.0 mph 85 % 0.00 in 258 W/m2
14:42 54.9 °F 50.4 °F 29.74 in West 11.0 mph 20.0 mph 85 % 0.00 in 118 W/m2
14:47 54.9 °F 50.4 °F 29.74 in West 12.0 mph 21.0 mph 85 % 0.00 in 239 W/m2
14:52 54.9 °F 50.8 °F 29.74 in WNW 10.0 mph 21.0 mph 86 % 0.00 in 134 W/m2
14:57 54.9 °F 50.4 °F 29.74 in WNW 8.0 mph 18.0 mph 85 % 0.00 in 90 W/m2
15:02 54.9 °F 50.1 °F 29.74 in WNW 11.0 mph 19.0 mph 84 % 0.00 in 125 W/m2
15:07 54.7 °F 49.9 °F 29.73 in WNW 11.0 mph 19.0 mph 84 % 0.00 in 128 W/m2
15:12 54.7 °F 49.9 °F 29.73 in WNW 10.0 mph 22.0 mph 84 % 0.00 in 144 W/m2
15:17 54.7 °F 49.3 °F 29.73 in WNW 11.0 mph 23.0 mph 82 % 0.00 in 165 W/m2
15:22 54.7 °F 49.6 °F 29.73 in WNW 12.0 mph 23.0 mph 83 % 0.00 in 141 W/m2
15:27 54.3 °F 49.6 °F 29.74 in WNW 12.0 mph 20.0 mph 84 % 0.00 in 181 W/m2
15:32 54.1 °F 49.4 °F 29.73 in WNW 13.0 mph 21.0 mph 84 % 0.00 in 199 W/m2
15:37 54.1 °F 49.7 °F 29.73 in WNW 11.0 mph 21.0 mph 85 % 0.00 in 148 W/m2
15:42 54.0 °F 49.6 °F 29.73 in WNW 10.0 mph 19.0 mph 85 % 0.00 in 67 W/m2
15:47 53.8 °F 49.7 °F 29.73 in WNW 8.0 mph 19.0 mph 86 % 0.00 in 88 W/m2
15:52 53.4 °F 49.6 °F 29.73 in WNW 6.0 mph 13.0 mph 87 % 0.00 in 46 W/m2
15:57 53.2 °F 49.8 °F 29.73 in WNW 6.0 mph 9.0 mph 88 % 0.00 in 28 W/m2
16:02 53.1 °F 49.6 °F 29.73 in WNW 6.0 mph 10.0 mph 88 % 0.00 in 70 W/m2
16:07 52.9 °F 49.7 °F 29.73 in WNW 5.0 mph 10.0 mph 89 % 0.00 in 54 W/m2
16:12 52.9 °F 50.0 °F 29.72 in WNW 5.0 mph 9.0 mph 90 % 0.00 in 74 W/m2
16:17 52.9 °F 50.0 °F 29.73 in WNW 4.0 mph 9.0 mph 90 % 0.00 in 37 W/m2
16:22 52.9 °F 50.0 °F 29.73 in WNW 3.0 mph 7.0 mph 90 % 0.00 in 28 W/m2
16:27 52.9 °F 50.3 °F 29.73 in WNW 2.0 mph 7.0 mph 91 % 0.00 in 26 W/m2
16:32 52.9 °F 50.3 °F 29.74 in WNW 2.0 mph 6.0 mph 91 % 0.00 in 30 W/m2
16:34 52.9 °F 50.3 °F 29.74 in WNW 2.0 mph 8.0 mph 91 % 0.00 in 30 W/m2
16:41 53.1 °F 50.5 °F 29.73 in West 6.0 mph 8.0 mph 91 % 0.00 in 35 W/m2
16:46 53.1 °F 50.2 °F 29.73 in West 7.0 mph 15.0 mph 90 % 0.00 in 74 W/m2
16:51 53.2 °F 50.4 °F 29.73 in West 8.0 mph 16.0 mph 90 % 0.00 in 81 W/m2
16:56 53.4 °F 50.3 °F 29.73 in West 8.0 mph 16.0 mph 89 % 0.00 in 123 W/m2
17:01 53.6 °F 50.4 °F 29.72 in West 8.0 mph 16.0 mph 89 % 0.00 in 107 W/m2
17:06 53.8 °F 50.3 °F 29.73 in West 8.0 mph 19.0 mph 88 % 0.00 in 83 W/m2
17:11 53.8 °F 50.3 °F 29.73 in West 10.0 mph 19.0 mph 88 % 0.00 in 91 W/m2
17:16 53.8 °F 50.3 °F 29.74 in West 10.0 mph 16.0 mph 88 % 0.00 in 98 W/m2
17:21 53.8 °F 50.3 °F 29.74 in West 9.0 mph 14.0 mph 88 % 0.00 in 104 W/m2
17:26 53.8 °F 50.3 °F 29.73 in West 8.0 mph 14.0 mph 88 % 0.00 in 58 W/m2
17:31 53.8 °F 50.3 °F 29.74 in West 7.0 mph 12.0 mph 88 % 0.00 in 51 W/m2
17:36 53.8 °F 50.3 °F 29.74 in West 6.0 mph 10.0 mph 88 % 0.00 in 51 W/m2
17:41 53.8 °F 50.3 °F 29.74 in West 6.0 mph 9.0 mph 88 % 0.00 in 30 W/m2
17:46 53.6 °F 50.1 °F 29.74 in West 7.0 mph 13.0 mph 88 % 0.00 in 12 W/m2
17:51 53.6 °F 49.8 °F 29.74 in West 8.0 mph 13.0 mph 87 % 0.00 in 9 W/m2
17:52 53.6 °F 49.8 °F 29.74 in West 8.0 mph 13.0 mph 87 % 0.00 in 7 W/m2
17:57 53.4 °F 50.0 °F 29.74 in West 7.0 mph 13.0 mph 88 % 0.00 in 5 W/m2
18:02 53.4 °F 50.0 °F 29.74 in West 8.0 mph 13.0 mph 88 % 0.00 in 0 W/m2
18:07 53.2 °F 49.8 °F 29.74 in West 6.0 mph 13.0 mph 88 % 0.00 in 0 W/m2
18:12 53.2 °F 49.8 °F 29.75 in West 6.0 mph 10.0 mph 88 % 0.00 in 0 W/m2
18:17 53.2 °F 50.1 °F 29.75 in West 6.0 mph 10.0 mph 89 % 0.00 in 0 W/m2
18:22 53.2 °F 50.1 °F 29.74 in West 5.0 mph 10.0 mph 89 % 0.00 in 0 W/m2
18:27 53.2 °F 50.1 °F 29.74 in WSW 6.0 mph 11.0 mph 89 % 0.00 in 0 W/m2
18:32 53.1 °F 49.9 °F 29.74 in WSW 6.0 mph 11.0 mph 89 % 0.00 in 0 W/m2
18:37 53.1 °F 49.9 °F 29.74 in WSW 5.0 mph 10.0 mph 89 % 0.00 in 0 W/m2
18:42 53.1 °F 50.2 °F 29.74 in WSW 5.0 mph 14.0 mph 90 % 0.00 in 0 W/m2
18:47 53.1 °F 50.2 °F 29.74 in West 6.0 mph 14.0 mph 90 % 0.00 in 0 W/m2
18:52 53.1 °F 50.2 °F 29.74 in West 7.0 mph 11.0 mph 90 % 0.00 in 0 W/m2
18:57 53.1 °F 50.2 °F 29.74 in West 7.0 mph 14.0 mph 90 % 0.00 in 0 W/m2
19:02 53.2 °F 50.1 °F 29.74 in West 7.0 mph 15.0 mph 89 % 0.00 in 0 W/m2
19:07 53.2 °F 50.1 °F 29.74 in West 7.0 mph 15.0 mph 89 % 0.00 in 0 W/m2
19:12 53.2 °F 50.1 °F 29.74 in West 7.0 mph 12.0 mph 89 % 0.00 in 0 W/m2
19:17 53.2 °F 50.1 °F 29.74 in West 7.0 mph 14.0 mph 89 % 0.00 in 0 W/m2
19:22 53.4 °F 50.3 °F 29.74 in West 8.0 mph 14.0 mph 89 % 0.00 in 0 W/m2
19:27 53.4 °F 50.3 °F 29.74 in West 6.0 mph 13.0 mph 89 % 0.00 in 0 W/m2
19:32 53.4 °F 50.3 °F 29.74 in West 8.0 mph 16.0 mph 89 % 0.00 in 0 W/m2
19:37 53.4 °F 50.3 °F 29.74 in West 9.0 mph 16.0 mph 89 % 0.00 in 0 W/m2
19:42 53.4 °F 50.3 °F 29.74 in West 9.0 mph 15.0 mph 89 % 0.00 in 0 W/m2
19:47 53.4 °F 50.3 °F 29.74 in West 9.0 mph 15.0 mph 89 % 0.00 in 0 W/m2
19:52 53.4 °F 50.6 °F 29.74 in WSW 9.0 mph 15.0 mph 90 % 0.00 in 0 W/m2
19:57 53.4 °F 50.6 °F 29.74 in WSW 9.0 mph 18.0 mph 90 % 0.00 in 0 W/m2
20:02 53.4 °F 50.6 °F 29.74 in WSW 8.0 mph 18.0 mph 90 % 0.00 in 0 W/m2
20:07 53.4 °F 50.6 °F 29.74 in West 8.0 mph 14.0 mph 90 % 0.00 in 0 W/m2
20:12 53.2 °F 50.4 °F 29.74 in West 9.0 mph 15.0 mph 90 % 0.00 in 0 W/m2
20:17 53.2 °F 50.4 °F 29.74 in West 9.0 mph 15.0 mph 90 % 0.00 in 0 W/m2
20:22 53.2 °F 50.4 °F 29.74 in West 10.0 mph 18.0 mph 90 % 0.00 in 0 W/m2
20:27 53.2 °F 50.7 °F 29.74 in West 11.0 mph 20.0 mph 91 % 0.00 in 0 W/m2
20:32 53.2 °F 50.7 °F 29.73 in West 11.0 mph 20.0 mph 91 % 0.00 in 0 W/m2
20:38 53.1 °F 50.5 °F 29.73 in West 10.0 mph 18.0 mph 91 % 0.00 in 0 W/m2
20:43 53.1 °F 50.5 °F 29.73 in West 10.0 mph 18.0 mph 91 % 0.00 in 0 W/m2
20:48 53.1 °F 50.5 °F 29.74 in West 10.0 mph 20.0 mph 91 % 0.00 in 0 W/m2
20:53 53.1 °F 50.5 °F 29.73 in West 10.0 mph 20.0 mph 91 % 0.00 in 0 W/m2
20:58 53.1 °F 50.5 °F 29.73 in West 10.0 mph 16.0 mph 91 % 0.00 in 0 W/m2
21:03 53.1 °F 50.5 °F 29.72 in West 9.0 mph 16.0 mph 91 % 0.00 in 0 W/m2
21:08 53.1 °F 50.5 °F 29.72 in West 8.0 mph 14.0 mph 91 % 0.00 in 0 W/m2
21:13 53.2 °F 50.7 °F 29.72 in West 8.0 mph 13.0 mph 91 % 0.00 in 0 W/m2
21:18 53.2 °F 50.7 °F 29.72 in West 8.0 mph 14.0 mph 91 % 0.00 in 0 W/m2
21:23 53.2 °F 50.7 °F 29.72 in West 8.0 mph 16.0 mph 91 % 0.00 in 0 W/m2
21:28 53.2 °F 50.7 °F 29.72 in West 9.0 mph 18.0 mph 91 % 0.00 in 0 W/m2
21:33 53.4 °F 50.9 °F 29.71 in West 9.0 mph 18.0 mph 91 % 0.00 in 0 W/m2
21:38 53.4 °F 50.6 °F 29.71 in West 9.0 mph 14.0 mph 90 % 0.00 in 0 W/m2
21:43 53.4 °F 50.6 °F 29.72 in West 8.0 mph 13.0 mph 90 % 0.00 in 0 W/m2
21:48 53.4 °F 50.6 °F 29.72 in West 8.0 mph 18.0 mph 90 % 0.00 in 0 W/m2
21:53 53.4 °F 50.9 °F 29.71 in West 9.0 mph 18.0 mph 91 % 0.00 in 0 W/m2
21:58 53.4 °F 50.9 °F 29.71 in West 9.0 mph 16.0 mph 91 % 0.00 in 0 W/m2
22:03 53.4 °F 50.9 °F 29.71 in West 9.0 mph 15.0 mph 91 % 0.00 in 0 W/m2
22:08 53.4 °F 50.9 °F 29.71 in West 9.0 mph 16.0 mph 91 % 0.00 in 0 W/m2
22:13 53.4 °F 51.2 °F 29.71 in WSW 9.0 mph 16.0 mph 92 % 0.00 in 0 W/m2
22:18 53.2 °F 51.0 °F 29.71 in WSW 9.0 mph 16.0 mph 92 % 0.00 in 0 W/m2
22:23 53.2 °F 51.0 °F 29.70 in West 9.0 mph 16.0 mph 92 % 0.00 in 0 W/m2
22:28 53.2 °F 51.0 °F 29.70 in WSW 9.0 mph 15.0 mph 92 % 0.00 in 0 W/m2
22:33 53.2 °F 51.0 °F 29.70 in WSW 9.0 mph 15.0 mph 92 % 0.00 in 0 W/m2
22:38 53.2 °F 51.3 °F 29.70 in WSW 9.0 mph 16.0 mph 93 % 0.00 in 0 W/m2
22:43 53.2 °F 51.3 °F 29.70 in WSW 10.0 mph 16.0 mph 93 % 0.00 in 0 W/m2
22:48 53.1 °F 51.1 °F 29.69 in WSW 10.0 mph 15.0 mph 93 % 0.00 in 0 W/m2
22:53 53.1 °F 51.1 °F 29.69 in WSW 9.0 mph 15.0 mph 93 % 0.00 in 0 W/m2
22:58 53.1 °F 51.1 °F 29.69 in WSW 9.0 mph 14.0 mph 93 % 0.00 in 0 W/m2
23:04 53.1 °F 51.1 °F 29.69 in WSW 8.0 mph 14.0 mph 93 % 0.00 in 0 W/m2
23:09 52.9 °F 50.9 °F 29.70 in WSW 8.0 mph 13.0 mph 93 % 0.00 in 0 W/m2
23:14 53.1 °F 51.1 °F 29.69 in WSW 9.0 mph 19.0 mph 93 % 0.00 in 0 W/m2
23:19 53.1 °F 51.1 °F 29.69 in WSW 10.0 mph 19.0 mph 93 % 0.00 in 0 W/m2
23:24 53.2 °F 51.3 °F 29.69 in WSW 11.0 mph 19.0 mph 93 % 0.00 in 0 W/m2
23:29 53.4 °F 51.4 °F 29.69 in WSW 11.0 mph 20.0 mph 93 % 0.00 in 0 W/m2
23:34 53.4 °F 51.2 °F 29.69 in WSW 11.0 mph 20.0 mph 92 % 0.00 in 0 W/m2
23:39 53.6 °F 51.3 °F 29.69 in WSW 11.0 mph 21.0 mph 92 % 0.00 in 0 W/m2
23:44 53.8 °F 51.5 °F 29.68 in WSW 12.0 mph 21.0 mph 92 % 0.00 in 0 W/m2
23:49 54.0 °F 51.4 °F 29.68 in WSW 13.0 mph 21.0 mph 91 % 0.00 in 0 W/m2
23:54 54.0 °F 51.4 °F 29.68 in WSW 13.0 mph 23.0 mph 91 % 0.00 in 0 W/m2
23:59 54.1 °F 51.6 °F 29.68 in WSW 13.0 mph 23.0 mph 91 % 0.00 in 0 W/m2
Delerius-Weather
Compliments of Weather Underground - 2.25 mb

Data updates at regular intervals.